Patuxent River, MD

10:08 AM EDT on August 29, 2016 (GMT -0400)
Patuxent River Naval Air Station

Weather History for KNHK - April, 2013

Change the Weather History Date:

Friday, April 26, 2013

  Actual Average Record
Temperature  
Mean Temperature 52 °F -  
Max Temperature 64 °F 66 °F 87 °F (2016)
Min Temperature 39 °F 46 °F 37 °F (2001)
Degree Days  
Heating Degree Days 14    
Growing Degree Days 2 (Base 50)    
Moisture  
Dew Point 39 °F    
Average Humidity 61    
Maximum Humidity 86    
Minimum Humidity 31    
Precipitation  
Precipitation 0.00 in - - ()
Sea Level Pressure  
Sea Level Pressure 30.38 in    
Wind  
Wind Speed 4 mph (NE)    
Max Wind Speed 15 mph    
Max Gust Speed -    
Visibility 10 miles    
Events      
Averages and records for this station are not official NWS values.
T = Trace of Precipitation, MM = Missing Value Source: NWS Daily Summary

Daily Weather History Graph

Daily Weather History Graph

Search for Another Location

Airport or City:

Trip Planner

Search our weather history database for the weather conditions in past years. The results will help you decide how hot, cold, wet, or windy it might be!

Date:

Astronomy

Apr. 26, 2013 Rise Set
Actual Time 6:14 AM EDT 7:52 PM EDT
Civil Twilight 5:46 AM EDT 8:20 PM EDT
Nautical Twilight 5:12 AM EDT 8:54 PM EDT
Astronomical Twilight 4:37 AM EDT 9:30 PM EDT
Moon 9:11 PM EDT (4/26) 6:41 AM EDT (4/26)
Length of Visible Light 14h 34m
Length of Day
13h 37m
Full, 99% of the Moon is Illuminated
Apr 26
Full
May 2
Last Quarter
May 9
New
May 18
First Quarter
May 25
Full

Hourly Weather History & Observations

Time (EDT) Temp. Windchill Dew Point Humidity Pressure Visibility Wind Dir Wind Speed Gust Speed Precip Events Conditions
12:52 AM 46.0 °F - 39.0 °F 76% 30.30 in 10.0 mi Calm Calm - N/A   Clear
1:52 AM 46.0 °F 43.1 °F 41.0 °F 83% 30.32 in 10.0 mi WSW 5.8 mph - N/A   Mostly Cloudy
2:52 AM 46.0 °F 44.8 °F 37.9 °F 73% 30.32 in 10.0 mi SW 3.5 mph - N/A   Partly Cloudy
3:52 AM 41.0 °F - 37.0 °F 86% 30.32 in 10.0 mi Calm Calm - N/A   Clear
4:52 AM 42.1 °F - 36.0 °F 79% 30.33 in 10.0 mi Calm Calm - N/A   Clear
5:04 AM 41.0 °F - 35.6 °F 81% 30.34 in 10.0 mi Calm Calm - N/A   Clear
5:52 AM 39.0 °F - 35.1 °F 86% 30.35 in 10.0 mi Calm Calm - N/A   Clear
6:52 AM 41.0 °F - 37.0 °F 86% 30.38 in 10.0 mi Calm Calm - N/A   Partly Cloudy
7:52 AM 52.0 °F - 42.1 °F 69% 30.41 in 10.0 mi WNW 8.1 mph - N/A   Clear
8:52 AM 57.0 °F - 41.0 °F 55% 30.43 in 10.0 mi North 15.0 mph - N/A   Clear
9:52 AM 59.0 °F - 41.0 °F 51% 30.44 in 10.0 mi North 8.1 mph - N/A   Clear
10:52 AM 60.1 °F - 41.0 °F 49% 30.45 in 10.0 mi NNE 8.1 mph - N/A   Clear
11:52 AM 61.0 °F - 39.9 °F 46% 30.44 in 10.0 mi NNE 10.4 mph - N/A   Partly Cloudy
12:52 PM 62.1 °F - 39.0 °F 43% 30.42 in 10.0 mi NNE 9.2 mph - N/A   Partly Cloudy
1:52 PM 64.0 °F - 39.0 °F 40% 30.39 in 10.0 mi ENE 5.8 mph - N/A   Partly Cloudy
2:52 PM 64.0 °F - 36.0 °F 35% 30.40 in 10.0 mi ENE 6.9 mph - N/A   Scattered Clouds
3:52 PM 64.0 °F - 35.1 °F 34% 30.39 in 10.0 mi ESE 9.2 mph - N/A   Scattered Clouds
4:52 PM 64.0 °F - 33.1 °F 31% 30.38 in 10.0 mi ESE 9.2 mph - N/A   Scattered Clouds
5:52 PM 63.0 °F - 35.1 °F 35% 30.37 in 10.0 mi East 9.2 mph - N/A   Scattered Clouds
6:52 PM 60.1 °F - 43.0 °F 53% 30.36 in 10.0 mi ESE 6.9 mph - N/A   Scattered Clouds
7:52 PM 57.0 °F - 41.0 °F 55% 30.37 in 10.0 mi Calm Calm - N/A   Mostly Cloudy
8:52 PM 52.0 °F - 39.9 °F 63% 30.39 in 10.0 mi Calm Calm - N/A   Mostly Cloudy
9:52 PM 48.0 °F - 39.0 °F 71% 30.41 in 10.0 mi Calm Calm - N/A   Partly Cloudy
10:52 PM 48.9 °F - 39.9 °F 71% 30.42 in 10.0 mi Calm Calm - N/A   Scattered Clouds
11:52 PM 48.9 °F - 42.1 °F 77% 30.41 in 10.0 mi Calm Calm - N/A   Clear